Regional Weather Roundup
Issued by NWS

Home | Current Version | Previous Version | Text Only | Print | Product List | Glossary On
Versions: 1 2 3 4 5 6 7 8 9 10 11 12 13 14 15 16 17 18 19 20 21 22 23 24 25 26 27
000
ASUS42 KKEY 241610
RWRKEY

FLORIDA REGIONAL WEATHER ROUNDUP FOR THE FLORIDA KEYS
NATIONAL WEATHER SERVICE KEY WEST FLORIDA
1200 PM EDT FRI OCT 24 2014

...SOUTH FLORIDA AND THE KEYS...

CITY           SKY/WX    TMP DP  RH WIND       PRES   REMARKS
FORT MYERS     CLOUDY    79  63  57 NE16      29.94S
SW REGIONAL AP CLOUDY    80  63  55 NE17G25   29.94S
NAPLES         SUNNY     83  66  56 NE15      29.91S
MIAMI          LGT RAIN  78  71  79 NE15G28   29.88S
WEST KENDALL   LGT RAIN  77  73  87 NE15      29.87F FOG
HOMESTEAD      HVY RAIN  75  73  94 NE21G28   29.84F FOG
MARATHON       CLOUDY    77  32  19 N12G20    29.85S
BOCA CHICA NAS CLOUDY    78  72  81 N16G23    29.87S
KEY WEST INTL  PTSUNNY   79  74  84 N14G22    29.87S

...INTERNATIONAL WEATHER...

CITY           SKY/WX    TMP DP  RH WIND       PRES   REMARKS
NASSAU BAHAMAS CLOUDY    79  73  83 SE7       29.86S
CANCUN MEXICO  PTSUNNY   82  77  83 N6        29.88F HX  91
COZUMEL MEXICO PTSUNNY   75  75 100 CALM      29.89S

ADJACENT COASTAL WATERS...

STATION/POSITION TIME  SKY/WX   TEMP    WIND        PRES    WAVE
                                AIR SEA DIR/SP/G            HT/PER
                 (UTC)          (F)     (DEG/KT/KT) (MB)    (FT/S)
PULASKI SHOAL LI 1500            78      40/ 22/ 24 1012.2R
SAND KEY         1540            77      30/ 19/ 22 1011.5S
SOMBRERO KEY     1600            76      10/ 17/ 19 1011.2R
LONG KEY         1600            76 78   20/ 17/ 19 1010.8F
MOLASSES REEF    1600            77 82   70/  2/  3 1010.0F
FOWEY ROCKS      1600            75 81   80/ 19/ 23 1011.4R
Buoy 42080       NOT AVBL

$$



USA.gov is the U.S. government's official web portal to all federal, state and local government web resources and services.